[[{"header":{"parameterUnit":"m.s-1","parameterCategory":1,"la1":30.2991,"la2":30.254,"lo1":-89.0895,"lo2":-89.0444,"dy":0.0017,"dx":0.0017,"nx":28,"ny":28,"refTime":"2025-04-24T21:00:00:Z","depth":0,"parameterNumber":2,"parameterNumberName":"U-component_of_WINDS"},"data":[0,0,0,0,0,0,0,0,0,0,0,0,0,0,0,0,0,0,0,0,0,0,0,0,0,0,0,0,0,0,0,0,0,0,0,0,0,0,0,0,0,0,0,0,0,0,0,0,0,0,0,0,0,0,0,0,0,0,-3.1213,-3.1214,0,-3.1305,-3.1306,-3.1307,-3.1315,-3.1314,-3.1313,-3.1312,-3.1405,-3.1408,-3.1412,0,0,0,0,0,0,0,0,0,0,0,0,0,-3.1048,-3.1051,-3.1213,-3.1215,-3.1216,-3.1304,-3.1306,-3.1307,-3.1315,-3.1314,-3.1313,-3.1312,-3.1404,-3.1408,-3.1412,0,0,0,0,0,0,0,0,0,0,0,0,0,-3.1127,-3.1052,-3.1213,-3.1231,-3.1233,-3.1304,-3.1306,-3.1307,-3.1316,-3.1314,-3.1313,-3.1311,-3.1403,-3.1408,-3.1413,-3.1472,0,0,-3.1428,-3.143,0,0,0,0,0,0,0,0,-3.1123,-3.1133,-3.1227,-3.123,-3.1232,-3.1297,-3.1281,-3.1362,-3.1316,-3.1284,-3.1312,-3.1311,-3.137,-3.1378,-3.1398,-3.1476,-3.148,-3.1428,-3.1431,-3.1434,-3.1435,0,0,0,0,0,0,0,-3.1117,-3.113,-3.1249,-3.1228,-3.1232,-3.1234,-3.1244,-3.1297,-3.1334,-3.1287,-3.1288,-3.1299,-3.1371,-3.1393,-3.14,-3.1482,-3.1428,-3.1433,-3.1436,-3.1438,-3.1615,-3.1617,0,0,0,0,0,0,-3.1108,-3.1125,-3.1246,-3.1252,-3.1173,-3.1238,-3.1249,-3.1278,-3.1334,-3.1341,-3.13,-3.1299,-3.1385,-3.1394,-3.1404,-3.1477,-3.1433,-3.1438,-3.1441,-3.1613,-3.1615,-3.1617,0,0,0,0,0,0,-3.1105,-3.1119,-3.1243,-3.1189,-3.1205,-3.1243,-3.1275,-3.128,-3.1302,-3.1343,-3.135,-3.1315,-3.1385,-3.1396,-3.1455,-3.1481,-3.144,-3.1445,-3.1611,-3.1614,-3.1616,-3.1625,0,0,0,0,0,0,-3.11,-3.1118,-3.114,-3.1189,-3.1208,-3.1293,-3.1276,-3.1283,-3.1311,-3.131,-3.1359,-3.1366,-3.1384,-3.1448,-3.146,-3.1487,-3.1449,-3.1609,-3.1613,-3.1616,-3.1623,-3.1628,-3.1632,0,0,0,0,0,-3.1094,-3.1139,-3.1142,-3.1156,-3.1237,-3.1294,-3.1305,-3.1325,-3.1313,-3.1336,-3.1363,-3.1364,-3.1476,-3.1454,-3.1468,-3.1496,-3.1608,-3.1612,-3.1615,-3.1621,-3.1627,-3.1632,0,0,0,0,0,0,-3.1091,-3.1146,-3.1149,-3.1211,-3.1248,-3.1295,-3.1325,-3.1331,-3.1372,-3.1369,-3.1393,-3.1404,-3.1462,-3.1485,-3.1459,-3.1558,-3.1541,-3.1548,-3.154,-3.1546,-3.1551,-3.1543,-3.1453,0,0,0,0,0,-3.1098,-3.114,-3.1185,-3.1236,-3.1254,-3.1287,-3.1312,-3.1325,-3.1364,-3.138,-3.1411,-3.1449,-3.1493,-3.1521,-3.1564,-3.1627,-3.1638,-3.1654,-3.1658,-3.1662,-3.1667,-3.1703,-3.1711,-3.163,-3.163,-3.163,0,0,-3.1112,-3.1147,-3.1172,-3.1236,-3.1266,-3.1309,-3.13,-3.1345,-3.1378,-3.1387,-3.1444,-3.1469,-3.1513,-3.1574,-3.1603,-3.1596,-3.1692,-3.1667,-3.1669,-3.1673,-3.1708,-3.1715,-3.1722,-3.1632,-3.1632,-3.1632,0,0,-3.1159,-3.119,-3.1236,-3.1267,-3.1313,-3.1334,-3.1346,-3.1393,-3.141,-3.1468,-3.1476,-3.1515,-3.159,-3.1621,-3.1647,-3.1709,-3.1712,-3.1723,-3.1746,-3.1781,-3.1787,-3.1793,-3.1815,-3.1823,-3.1728,-3.1728,-3.1728,0,-3.1171,-3.1236,-3.1258,-3.1305,-3.1333,-3.1344,-3.1391,-3.142,-3.1477,-3.1497,-3.1488,-3.1583,-3.1614,-3.1683,-3.1698,-3.1719,-3.1732,-3.1716,-3.1784,-3.179,-3.1796,-3.1817,-3.1826,-3.1729,-3.1729,-3.1729,-3.1729,0,-3.1248,-3.1293,-3.1325,-3.1381,-3.1413,-3.1459,-3.1489,-3.1519,-3.1529,-3.1552,-3.1612,-3.165,-3.17,-3.1718,-3.1729,-3.179,-3.1784,-3.178,-3.1763,-3.1804,-3.1825,-3.1833,-3.173,-3.173,-3.173,-3.1729,0,0,-3.1294,-3.1363,-3.1374,-3.14,-3.1453,-3.1489,-3.1536,-3.1586,-3.1612,-3.1652,-3.1692,-3.1757,-3.1754,-3.1783,-3.1798,-3.1828,-3.1875,-3.1821,-3.1822,-3.1829,-3.1945,-3.1947,-3.1956,-3.1879,-3.188,-3.1882,-3.1941,0,-3.1347,-3.1431,-3.1453,-3.1525,-3.1568,-3.158,-3.1622,-3.1659,-3.1682,-3.1722,-3.1748,-3.1793,-3.1786,-3.1804,-3.1835,-3.1863,-3.1899,-3.1859,-3.1916,-3.1918,-3.1904,-3.1967,-3.1969,-3.2023,-3.195,-3.1951,-3.1952,0,-3.1419,-3.1461,-3.1537,-3.1586,-3.1605,-3.1641,-3.169,-3.1728,-3.1771,-3.1786,-3.182,-3.1832,-3.1883,-3.1865,-3.1935,-3.1907,-3.1933,-3.195,-3.1953,-3.1958,-3.1936,-3.1973,-3.2041,-3.2049,-3.1965,-3.1964,-3.1963,0,-3.1445,-3.1521,-3.1576,-3.1598,-3.1656,-3.1682,-3.1707,-3.1749,-3.1778,-3.1821,-3.1841,-3.1889,-3.1915,-3.1952,-3.1978,-3.1962,-3.2046,-3.203,-3.206,-3.2059,-3.2075,-3.2074,-3.2148,-3.2093,-3.2093,-3.2093,-3.2093,0,-3.1501,-3.1547,-3.1589,-3.1622,-3.1675,-3.1701,-3.1752,-3.1778,-3.1815,-3.1855,-3.1869,-3.1906,-3.1938,-3.198,-3.2,-3.2055,-3.2067,-3.2081,-3.2085,-3.2079,-3.2077,-3.2095,-3.2091,-3.2095,-3.2095,-3.2094,-3.2094,0,-3.1538,-3.1567,-3.1629,-3.1679,-3.1693,-3.1729,-3.1773,-3.1807,-3.1832,-3.1882,-3.1895,-3.1934,-3.1984,-3.2013,-3.2076,-3.209,-3.2151,-3.2154,-3.2136,-3.2138,-3.2166,-3.2163,-3.2253,-3.2266,-3.2204,-3.2204,-3.2205,0,-3.1571,-3.1607,-3.1661,-3.1689,-3.1715,-3.1759,-3.179,-3.1818,-3.1849,-3.1901,-3.1929,-3.198,-3.2022,-3.2101,-3.2135,-3.2184,-3.2188,-3.2217,-3.2195,-3.2188,-3.2188,-3.2185,-3.2189,-3.2219,-3.222,-3.222,-3.2221,0,-3.1627,-3.164,-3.1683,-3.1732,-3.1768,-3.1807,-3.1847,-3.1869,-3.1904,-3.1938,-3.1989,-3.2022,-3.2087,-3.2137,-3.2189,-3.2216,-3.2225,-3.2228,-3.2237,-3.223,-3.2218,-3.2225,-3.2145,-3.2225,-3.2225,-3.2224,-3.2224,-3.2224,-3.1663,-3.1695,-3.1739,-3.1787,-3.182,-3.1857,-3.1891,-3.1921,-3.1964,-3.2019,-3.2033,-3.2087,-3.2131,-3.2202,-3.223,-3.2273,-3.2269,-3.2282,-3.2286,-3.2288,-3.2289,-3.2212,-3.2283,-3.2283,-3.2283,-3.2283,-3.2283,0,-3.1719,-3.1749,-3.1792,-3.1847,-3.1885,-3.1891,-3.1935,-3.1967,-3.2014,-3.2054,-3.2096,-3.2155,-3.2205,-3.2244,-3.2295,-3.2322,-3.2327,-3.2334,-3.2332,-3.2338,-3.229,-3.2277,-3.2329,-3.2329,-3.2329,-3.2329,-3.2329,-3.2329,-3.1753,-3.1809,-3.1828,-3.19,-3.1929,-3.1982,-3.2007,-3.2042,-3.2074,-3.214,-3.2182,-3.2207,-3.2247,-3.2301,-3.2347,-3.2357,-3.2375,-3.2382,-3.2393,-3.2347,-3.2342,-3.2337,-3.2324,-3.2386,-3.2386,-3.2437,-3.2437,-3.2438]},{"header":{"parameterUnit":"m.s-1","parameterCategory":1,"la1":30.2991,"la2":30.254,"lo1":-89.0895,"lo2":-89.0444,"dy":0.0017,"dx":0.0017,"nx":28,"ny":28,"refTime":"2025-04-24T21:00:00:Z","depth":0,"parameterNumber":3,"parameterNumberName":"V-component_of_WINDS"},"data":[0,0,0,0,0,0,0,0,0,0,0,0,0,0,0,0,0,0,0,0,0,0,0,0,0,0,0,0,0,0,0,0,0,0,0,0,0,0,0,0,0,0,0,0,0,0,0,0,0,0,0,0,0,0,0,0,0,0,4.9161,4.9162,0,4.9291,4.9293,4.9294,4.9344,4.9344,4.9343,4.9343,4.947,4.9474,4.9478,0,0,0,0,0,0,0,0,0,0,0,0,0,4.8948,4.8952,4.916,4.9162,4.9164,4.9291,4.9293,4.9295,4.9344,4.9344,4.9343,4.9343,4.9469,4.9473,4.9478,0,0,0,0,0,0,0,0,0,0,0,0,0,4.9055,4.8953,4.916,4.9204,4.9209,4.9291,4.9293,4.9295,4.9344,4.9344,4.9343,4.9343,4.9468,4.9473,4.9479,4.9524,0,0,4.9496,4.9498,0,0,0,0,0,0,0,0,4.9049,4.9063,4.9196,4.9201,4.9207,4.9301,4.9265,4.9372,4.9344,4.9293,4.9343,4.9342,4.9414,4.9424,4.945,4.953,4.9536,4.9496,4.95,4.9502,4.9504,0,0,0,0,0,0,0,4.9042,4.9058,4.9212,4.9198,4.9205,4.9215,4.923,4.9285,4.9355,4.9297,4.9301,4.9316,4.9417,4.9444,4.9453,4.9538,4.9496,4.9501,4.9505,4.9507,4.9664,4.9665,0,0,0,0,0,0,4.9028,4.9051,4.9208,4.9216,4.9125,4.922,4.9236,4.9271,4.9354,4.9366,4.9317,4.9318,4.9435,4.9446,4.9457,4.9518,4.9502,4.9507,4.951,4.9664,4.9665,4.9665,0,0,0,0,0,0,4.9023,4.9041,4.9203,4.9135,4.9156,4.9224,4.9263,4.9274,4.9302,4.9369,4.9381,4.9332,4.9435,4.945,4.9508,4.9523,4.951,4.9515,4.9663,4.9664,4.9665,4.9639,0,0,0,0,0,0,4.9017,4.9039,4.9059,4.9135,4.916,4.9253,4.9264,4.9277,4.9312,4.9315,4.9387,4.9398,4.9435,4.95,4.9514,4.9531,4.9519,4.9662,4.9663,4.9665,4.9639,4.9639,4.964,0,0,0,0,0,4.9009,4.9044,4.906,4.9078,4.9186,4.9254,4.9268,4.9312,4.9313,4.9332,4.9376,4.9396,4.9519,4.9505,4.9522,4.9541,4.9661,4.9663,4.9664,4.9639,4.9639,4.964,0,0,0,0,0,0,4.8965,4.9055,4.9073,4.9134,4.9186,4.9262,4.9288,4.9311,4.9362,4.9362,4.9413,4.9429,4.9484,4.9518,4.9501,4.959,4.9591,4.9596,4.9566,4.9567,4.9568,4.9559,4.9524,0,0,0,0,0,4.8963,4.9013,4.9088,4.9135,4.916,4.9219,4.9251,4.9281,4.9336,4.9357,4.9405,4.9456,4.9506,4.9538,4.9588,4.9644,4.966,4.9665,4.9665,4.9665,4.9669,4.9702,4.9706,4.9672,4.9671,4.9671,0,0,4.8959,4.9014,4.9042,4.9127,4.9171,4.922,4.9237,4.9288,4.9325,4.9364,4.9424,4.946,4.952,4.9578,4.9606,4.9608,4.9682,4.9667,4.9667,4.9671,4.9705,4.9708,4.9711,4.9673,4.9673,4.9672,0,0,4.8976,4.9023,4.9068,4.9112,4.9179,4.9219,4.9229,4.9302,4.9329,4.939,4.9421,4.9464,4.955,4.9592,4.9625,4.9659,4.968,4.9674,4.9676,4.9708,4.971,4.9713,4.9727,4.9731,4.9677,4.9677,4.9677,0,4.8961,4.9039,4.9087,4.9138,4.9175,4.9215,4.9261,4.93,4.9379,4.9403,4.9405,4.9515,4.9558,4.9627,4.9636,4.966,4.9674,4.9666,4.9706,4.971,4.9713,4.9726,4.9731,4.9676,4.9676,4.9677,4.9677,0,4.9018,4.9071,4.9099,4.9178,4.9218,4.9265,4.932,4.9354,4.938,4.9419,4.9481,4.9534,4.9596,4.9615,4.9639,4.9688,4.9687,4.9697,4.9699,4.9714,4.9728,4.9733,4.9675,4.9675,4.9676,4.9676,0,0,4.9011,4.9118,4.9128,4.9165,4.9242,4.9283,4.9332,4.9396,4.9425,4.9477,4.952,4.9592,4.9603,4.9639,4.9669,4.9697,4.9723,4.9704,4.9706,4.9707,4.978,4.9774,4.9779,4.9737,4.9738,4.9739,4.9776,0,4.904,4.9133,4.9178,4.925,4.93,4.934,4.9382,4.9434,4.9471,4.9518,4.9558,4.9609,4.9618,4.9641,4.967,4.9714,4.9739,4.9711,4.9776,4.9778,4.9761,4.9786,4.9779,4.9811,4.9781,4.9782,4.9783,0,4.9086,4.9142,4.922,4.9294,4.9316,4.9354,4.9417,4.9461,4.952,4.9545,4.9587,4.9617,4.9669,4.9667,4.974,4.972,4.9749,4.9774,4.9776,4.9785,4.9782,4.9796,4.9822,4.9828,4.9791,4.9791,4.979,0,4.9075,4.917,4.9229,4.9259,4.9346,4.9372,4.9409,4.9468,4.9504,4.9557,4.9581,4.9639,4.9671,4.9715,4.9759,4.9753,4.9827,4.9829,4.985,4.9848,4.9864,4.9863,4.9896,4.988,4.988,4.988,4.988,0,4.9103,4.9149,4.9226,4.9263,4.9316,4.9367,4.9417,4.9457,4.9509,4.9553,4.9589,4.9629,4.9685,4.9731,4.9766,4.9821,4.9834,4.9856,4.9865,4.9854,4.9851,4.9874,4.9873,4.9881,4.9881,4.9881,4.9881,0,4.9101,4.9154,4.9221,4.9299,4.932,4.9355,4.9421,4.9457,4.9497,4.9552,4.9568,4.963,4.9687,4.9735,4.9809,4.9833,4.989,4.99,4.9871,4.9876,4.9895,4.9893,4.9946,4.9956,4.9931,4.9931,4.9931,0,4.9116,4.9153,4.9235,4.9269,4.9306,4.9359,4.9397,4.9449,4.9486,4.9557,4.9585,4.9645,4.9696,4.9785,4.9835,4.9892,4.9904,4.9919,4.9913,4.9901,4.9906,4.9904,4.9909,4.9919,4.9919,4.9919,4.9919,0,4.9137,4.9162,4.9217,4.9281,4.9326,4.9377,4.943,4.9455,4.9516,4.9556,4.9617,4.9656,4.9734,4.9793,4.9856,4.9892,4.9916,4.9921,4.9929,4.9919,4.9901,4.9913,4.9874,4.9919,4.9919,4.9919,4.9919,4.9919,4.9145,4.9181,4.9245,4.9305,4.9351,4.94,4.9439,4.9484,4.9537,4.9606,4.9632,4.9694,4.9752,4.984,4.9876,4.9924,4.9928,4.9939,4.9942,4.9944,4.9943,4.9893,4.9935,4.9935,4.9935,4.9936,4.9936,0,4.917,4.9214,4.9269,4.9343,4.939,4.9411,4.947,4.9508,4.9563,4.9616,4.9667,4.9737,4.9795,4.985,4.9911,4.9938,4.9951,4.9953,4.9952,4.996,4.9936,4.9924,4.9942,4.9942,4.9942,4.9942,4.9942,4.9942,4.9189,4.9251,4.9284,4.9369,4.9412,4.9475,4.9508,4.9553,4.9596,4.9674,4.9723,4.976,4.9814,4.9879,4.9933,4.9948,4.9969,4.9968,4.9986,4.9963,4.9961,4.996,4.9949,4.9972,4.9972,5.0006,5.0006,5.0006]}]]